GFSFLT1_850_dewp_066.txt.gz
Dewpoint
8 6 8 10 10 10 10 10 10 10 9 9 8 8 7 6 5 7 -1 1 3 2 -0 -2 0 3 8 6 6 6 6 6
8 7 8 9 9 10 10 10 10 10 9 8 7 7 8 6 7 7 1 1 3 2 1 -0 1 6 7 6 6 6 6 7
8 8 8 9 9 9 10 10 10 10 9 8 8 6 8 6 5 7 4 2 3 4 4 4 4 5 5 5 6 6 7 6
8 8 8 8 9 9 10 9 10 10 9 9 8 6 7 7 5 4 3 4 3 4 4 5 5 5 5 5 6 5 7 6
8 8 8 8 9 9 9 9 10 9 10 9 7 7 6 8 7 4 2 3 6 4 4 4 5 4 5 6 6 6 6 7
8 8 7 7 8 8 9 9 9 9 9 8 8 6 5 7 8 6 3 4 7 5 5 4 4 5 6 6 7 6 3 4
8 8 8 7 8 8 8 8 9 9 9 9 9 8 7 7 7 5 6 6 6 5 5 4 6 5 4 4 5 5 4 4
8 8 8 7 7 8 8 8 8 8 9 9 9 8 6 8 5 2 7 6 5 5 5 5 4 4 3 4 5 3 3 3
7 7 8 7 7 8 8 8 8 8 8 9 8 7 6 7 2 6 7 6 6 6 5 5 4 3 3 4 5 6 3 4
7 7 8 8 7 7 8 8 8 8 8 7 8 8 7 7 6 6 6 4 4 5 5 4 3 2 3 4 7 8 7 7
6 7 8 8 8 6 7 7 7 8 8 8 8 8 8 8 7 7 6 6 5 6 5 3 4 4 4 7 7 7 8 8
6 7 8 8 8 7 5 5 7 7 8 8 8 8 8 8 8 8 7 6 6 6 6 6 6 6 6 7 7 7 8 6
4 6 7 8 8 8 7 6 7 6 7 7 8 8 8 8 7 7 7 6 6 6 5 6 6 6 6 6 6 7 3 3
2 5 6 7 8 8 8 6 4 5 6 6 7 6 6 5 5 5 7 7 7 7 7 7 6 6 5 5 5 4 3 2
0 3 5 6 7 8 8 8 7 6 6 7 7 4 2 4 4 4 5 4 5 4 5 7 7 7 7 6 5 2 1 4
-2 -1 2 4 6 7 7 7 7 7 7 7 4 3 2 3 3 2 3 4 5 6 6 4 3 3 3 3 3 2 2 2
-2 -2 -1 0 4 5 7 7 6 5 5 3 6 6 5 4 3 3 2 2 2 3 4 5 5 4 1 1 2 5 5 8
-1 -1 -0 -1 0 -1 2 1 5 3 -0 3 5 7 7 7 5 6 5 5 6 5 5 6 6 5 3 3 5 8 9 9
-2 -2 -1 -1 -3 -1 0 5 3 -0 -0 3 4 5 5 7 7 7 7 8 8 7 8 8 8 8 8 8 9 9 9 9

GFSFLT1_850_dewp_072.txt.gz
Dewpoint
7 8 8 9 11 10 10 8 9 9 9 10 10 10 10 10 9 9 8 7 8 4 7 8 9 9 8 7 6 5 5 4
6 8 8 9 11 11 10 8 9 10 10 9 9 9 9 9 9 9 7 4 5 8 9 8 7 7 7 7 5 5 6 6
6 8 9 9 10 10 9 9 9 10 9 9 9 9 9 9 9 7 7 7 7 8 7 6 7 7 7 6 6 7 7 6
7 8 9 9 8 10 9 10 9 10 10 9 9 9 9 9 8 6 6 6 8 7 7 7 6 5 5 5 5 6 7 7
6 8 9 9 9 9 11 10 9 10 9 9 9 9 9 8 7 6 5 4 2 4 6 4 2 1 2 4 5 6 7 6
6 7 8 9 8 10 10 9 9 10 9 9 9 9 9 8 4 2 1 4 7 7 6 5 1 1 2 1 4 6 6 6
6 7 7 8 9 9 10 10 9 9 9 9 9 8 8 8 6 3 6 7 6 7 7 6 2 3 -0 0 5 7 6 7
5 7 7 7 9 7 9 10 9 9 9 9 9 9 9 8 7 3 4 7 7 6 6 5 4 3 2 3 5 7 6 5
5 6 6 6 8 9 8 9 9 9 9 9 9 9 8 9 8 7 4 4 6 5 3 4 3 3 5 5 6 6 5 5
5 6 6 6 7 9 9 9 9 9 9 9 9 9 9 9 8 7 7 5 3 4 5 2 3 3 4 5 5 5 4 4
4 5 6 6 6 7 9 9 9 9 8 9 9 9 9 9 9 8 9 7 5 3 5 4 4 5 4 4 5 5 5 5
4 5 6 6 6 7 7 9 9 9 9 8 9 9 9 9 9 8 7 8 8 8 5 4 2 2 3 5 5 5 5 5
3 5 6 6 7 7 7 8 8 8 8 8 8 8 10 9 9 8 8 8 7 8 7 5 4 4 3 3 4 4 5 5
3 4 5 7 7 7 7 8 8 8 8 9 9 8 7 8 9 8 8 8 8 7 6 4 3 3 3 4 5 5 4 6
-1 2 4 6 7 8 8 7 8 7 8 8 9 8 6 7 8 8 9 9 9 8 8 7 5 2 2 6 6 5 5 5
-2 -2 0 3 5 7 8 8 8 8 8 7 8 8 9 9 8 8 9 8 9 8 9 8 8 8 8 8 8 8 8 8
1 0 -1 -1 2 5 6 8 8 8 8 7 7 8 9 9 9 9 10 9 9 9 9 9 9 8 8 8 7 7 8 8
4 4 3 2 1 2 2 6 7 8 8 8 8 8 8 8 9 9 9 9 9 8 8 9 9 8 8 8 8 8 8 8
5 5 6 6 6 4 3 1 1 7 7 8 9 9 8 8 9 9 9 9 9 9 9 8 9 8 9 9 9 9 9 8

GFSFLT1_850_dewp_075.txt.gz
Dewpoint
7 7 7 8 9 10 10 8 7 8 8 10 11 10 10 11 10 10 8 8 6 6 1 3 3 4 6 8 6 5 5 5
7 7 7 8 9 10 10 9 9 8 8 10 10 10 10 11 11 9 9 7 6 5 4 5 8 6 6 8 6 5 5 5
7 7 8 7 8 9 9 9 10 9 9 8 10 10 10 10 10 10 9 7 7 6 6 8 7 8 7 7 5 5 5 5
7 7 7 7 7 10 10 9 10 9 9 9 8 9 10 9 10 10 9 8 7 7 8 6 7 7 7 7 5 5 6 5
6 7 7 7 6 9 10 10 10 10 9 9 9 9 9 9 9 9 8 7 5 6 4 8 9 7 7 7 6 5 6 4
6 7 7 6 6 8 10 9 10 9 10 9 9 9 9 9 9 8 6 5 6 7 8 8 7 7 6 6 6 5 6 6
6 7 7 7 7 8 9 10 10 9 9 9 9 9 9 9 9 8 7 8 6 7 8 7 7 5 5 4 3 5 5 6
7 7 8 8 7 6 10 10 10 9 9 9 8 8 8 8 9 8 6 7 7 6 6 5 5 5 5 2 2 5 6 6
6 7 7 7 7 7 9 10 9 9 9 9 9 8 8 8 8 7 6 6 6 7 7 6 4 4 4 1 2 2 2 4
6 7 7 7 6 7 5 8 10 9 9 9 9 8 9 8 8 7 5 2 2 4 5 5 5 5 6 4 3 3 5 5
6 7 7 6 6 6 7 5 6 8 9 9 9 9 9 9 8 8 7 6 2 5 6 6 7 5 6 5 4 4 5 5
5 6 6 6 6 6 6 7 7 6 7 9 9 9 9 9 9 8 8 8 5 3 3 4 5 4 4 4 5 4 4 4
5 6 6 6 6 6 6 6 7 8 8 8 7 9 9 9 9 9 8 8 8 7 6 5 3 2 3 3 4 4 4 4
5 6 6 6 6 6 6 6 6 7 9 9 9 8 7 9 9 9 9 9 8 8 8 7 7 5 5 3 3 3 3 3
5 6 6 6 6 6 7 7 7 6 7 8 8 8 8 6 9 10 9 9 8 8 8 7 7 7 7 6 4 3 3 2
4 4 3 6 7 7 7 7 7 7 7 6 8 8 8 8 8 8 9 9 9 9 8 8 8 8 7 5 4 4 3 4
5 6 5 5 6 7 9 8 8 8 8 8 7 7 8 9 9 8 8 8 9 9 9 9 9 8 8 7 7 6 5 3
6 6 6 6 6 6 5 6 8 9 8 8 8 8 7 7 8 9 8 9 9 8 9 9 9 9 9 8 8 8 8 7
6 4 2 4 4 4 4 5 5 5 9 9 9 8 8 8 7 8 8 9 9 9 9 9 9 9 9 9 9 9 9 9

GFSFLT1_850_dewp_078.txt.gz
Dewpoint
5 7 7 7 7 8 4 8 8 8 10 10 10 11 11 11 11 11 9 7 6 3 -4 -7 -5 -4 1 -1 2 2 1 3
7 7 7 8 8 8 4 8 7 8 10 10 10 10 11 11 10 10 9 8 7 5 -0 -2 -2 1 5 5 6 6 5 4
7 7 7 8 8 8 4 7 8 8 9 10 10 11 11 11 11 10 9 9 7 6 2 1 1 6 7 8 7 6 5 5
7 7 8 8 8 7 2 7 9 8 9 9 10 10 10 10 11 9 9 9 8 6 4 2 4 3 5 7 7 6 5 5
6 7 8 8 8 6 3 8 9 8 9 8 10 10 10 10 10 10 9 9 8 6 5 2 7 7 7 6 7 5 5 5
6 6 7 8 8 4 4 9 9 9 8 9 8 8 9 9 10 10 10 9 7 7 6 5 6 8 8 7 7 6 5 5
6 7 7 7 7 5 6 10 10 9 9 9 8 9 8 9 9 9 9 9 8 8 7 7 8 7 7 7 6 7 5 6
7 7 7 7 6 5 6 10 9 10 9 9 8 9 9 9 9 9 9 9 8 8 6 7 6 7 8 6 6 6 5 5
6 6 7 7 7 5 3 9 9 9 9 9 8 8 8 8 8 8 9 9 8 6 6 9 8 8 8 7 7 6 6 6
6 6 7 7 7 5 1 7 9 10 9 9 8 8 8 8 8 7 9 8 7 6 6 8 8 8 7 7 6 5 3 3
7 6 7 7 7 6 4 2 8 9 9 9 8 8 8 8 8 8 8 8 8 7 5 5 6 6 5 5 4 4 3 3
6 6 6 6 7 6 5 5 6 9 9 9 8 8 8 8 8 8 8 7 7 7 6 4 5 5 4 2 3 2 3 3
6 6 6 7 7 6 6 6 6 4 5 8 9 8 8 8 8 8 8 8 7 6 5 5 6 6 6 4 4 6 6 5
7 7 7 7 6 6 6 6 5 5 5 5 6 7 9 8 8 8 8 8 8 8 7 5 3 3 5 6 4 5 6 5
7 7 7 8 8 8 8 7 7 6 6 6 6 7 7 7 8 8 8 8 8 8 8 8 7 3 4 4 4 4 3 4
7 8 8 8 8 8 8 8 8 8 8 8 6 5 7 8 8 7 8 8 8 8 8 9 9 8 8 7 7 6 7 6
6 6 6 8 8 9 9 9 9 8 8 8 9 8 8 8 8 8 8 7 7 9 9 9 9 8 8 8 8 8 8 8
4 5 6 6 7 7 6 7 8 9 9 9 9 9 9 9 9 8 9 9 8 8 7 8 8 8 8 8 8 8 8 8
4 4 5 6 7 7 7 7 6 8 10 10 9 9 9 9 10 9 9 9 9 9 9 8 8 8 8 8 8 9 9 9

GFSFLT1_850_dewp_081.txt.gz
Dewpoint
-3 5 6 7 7 8 8 7 5 8 8 9 11 11 11 10 11 10 10 10 11 10 4 -5 -6 -5 -4 3 6 6 6 7
-1 5 7 8 8 8 8 6 5 7 8 8 10 10 11 11 11 9 10 10 10 8 1 -6 -7 -8 -7 -2 5 6 6 7
2 6 7 8 8 8 8 6 6 7 7 9 10 10 11 11 11 10 10 10 9 7 -2 -7 -9 -9 -8 -5 5 6 5 6
5 7 7 8 9 8 8 6 7 7 7 9 9 10 10 11 10 11 10 9 8 7 -3 -8 -8 -6 -6 -4 5 4 2 4
4 6 7 8 8 8 8 5 7 7 7 9 10 10 10 10 11 11 11 9 8 8 6 -3 -4 -4 -2 -2 2 3 4 5
4 5 6 7 8 8 7 4 8 8 8 8 10 10 10 10 10 10 10 9 9 8 7 2 -1 -1 4 6 6 6 6 4
6 8 8 8 8 8 6 5 8 8 8 8 9 9 9 10 10 10 10 10 9 9 9 7 3 3 4 7 7 7 7 5
6 8 9 8 8 8 5 5 8 9 8 8 8 8 9 9 10 10 10 10 10 9 8 7 6 5 5 5 6 7 7 6
4 7 7 7 7 7 4 4 7 8 9 9 8 8 8 8 9 9 9 10 9 9 8 8 7 4 7 8 8 8 7 7
6 7 7 7 7 6 2 4 6 9 9 9 9 9 8 8 8 8 8 9 9 10 9 8 6 6 6 8 7 7 7 6
8 8 7 7 7 6 4 3 4 7 8 9 9 9 8 8 8 8 9 9 9 9 9 8 7 7 7 7 7 7 7 6
7 7 8 7 7 7 5 4 4 5 8 9 9 8 8 8 8 8 8 8 9 9 8 8 7 8 8 8 8 8 7 7
8 8 7 7 7 7 6 4 4 4 6 9 8 8 8 8 8 8 8 8 8 8 8 7 6 6 6 8 8 7 7 7
8 9 9 8 8 8 8 7 7 7 7 7 8 8 8 8 8 8 8 8 8 8 8 8 8 7 6 5 5 5 5 3
8 8 9 9 9 9 8 8 8 8 7 7 8 8 8 8 8 8 8 8 8 8 8 8 7 7 6 6 6 7 7 6
8 9 9 9 9 9 9 9 9 8 8 8 8 7 7 8 8 8 8 8 8 8 8 8 8 8 8 7 6 5 4 5
5 7 8 9 9 9 9 9 9 8 9 9 9 9 8 8 8 8 8 8 8 8 8 8 8 8 8 8 9 9 8 7
3 5 5 7 7 8 8 9 9 9 9 9 9 9 9 9 9 9 9 9 9 9 8 8 8 8 8 8 9 9 8 8
3 3 4 6 6 7 6 8 9 9 9 9 9 9 9 9 9 9 9 9 10 10 9 9 9 9 9 9 9 9 9 9

GFSFLT1_850_dewp_087.txt.gz
Dewpoint
-6 -6 -5 -5 -7 2 7 8 9 8 8 7 10 11 11 10 11 11 10 11 10 10 10 10 10 9 9 9 10 8 7 7
-5 -6 -4 -4 -6 -2 7 8 9 8 8 8 10 10 9 10 10 10 9 10 10 10 10 10 8 9 8 9 9 7 7 8
-5 -5 -4 -4 -5 -3 7 8 8 8 8 8 11 10 10 10 10 11 10 10 10 10 10 9 6 9 9 10 9 7 7 7
-5 -5 -4 -3 -4 -1 6 8 8 8 8 7 10 10 10 10 10 11 10 9 10 10 10 9 9 9 9 9 9 7 7 7
-5 -4 -4 -3 -0 4 8 8 8 8 7 5 9 10 9 10 10 10 10 10 10 10 10 10 9 9 10 8 9 8 7 7
-4 -5 -3 0 3 6 8 8 8 8 4 7 8 9 9 9 9 10 10 10 10 10 10 10 10 10 10 7 10 8 7 6
-3 -2 1 3 5 7 8 8 8 8 4 9 10 9 9 10 10 10 10 10 9 10 10 10 10 10 9 4 8 8 6 6
-0 2 2 6 5 7 8 9 8 7 5 9 9 9 9 10 10 10 10 10 10 10 10 10 10 8 4 0 4 7 5 6
3 4 5 8 5 9 9 9 8 6 8 9 10 9 9 10 10 10 10 9 8 7 9 9 6 2 0 -2 -1 0 2 1
5 3 3 6 6 8 9 9 8 5 9 9 9 9 9 9 9 9 10 10 9 8 8 7 8 7 7 2 -2 -3 -1 1
3 2 4 8 9 9 10 9 8 5 9 10 9 9 9 9 9 9 9 10 10 10 9 8 8 8 8 6 0 -0 0 1
8 8 9 9 9 10 10 9 8 6 10 9 9 8 9 8 8 8 9 9 9 10 10 9 9 9 8 8 6 2 5 4
9 9 9 9 9 10 10 10 7 6 9 8 8 8 8 8 8 8 8 8 9 9 9 9 9 9 9 9 8 3 3 4
9 9 8 8 8 10 10 8 5 5 7 8 8 8 8 8 8 8 8 8 8 9 8 9 9 9 9 9 9 8 6 6
8 8 8 8 8 10 9 7 5 5 6 8 8 8 8 8 8 8 8 8 8 8 8 8 8 9 8 9 9 9 8 8
4 5 7 8 8 9 9 8 7 6 7 8 8 8 8 8 8 8 8 8 8 8 8 8 8 8 8 8 8 8 8 7
1 2 4 7 8 8 9 8 9 9 9 9 9 9 9 8 8 8 8 8 8 8 8 8 8 7 7 8 8 8 7 7
-1 0 1 3 6 7 9 9 9 9 9 9 9 9 9 9 9 9 9 9 9 8 8 9 9 8 8 8 8 8 8 7
-2 -1 0 1 3 6 7 8 9 8 8 8 8 8 8 8 8 8 8 9 8 8 9 9 9 9 9 9 9 9 9 9

GFSFLT1_850_dewp_093.txt.gz
Dewpoint
-7 -6 -6 -7 -7 -2 4 9 12 10 12 11 8 9 9 9 10 10 8 11 11 11 11 11 11 10 10 11 10 9 9 9
-9 -7 -5 -5 -6 -2 5 9 13 11 14 12 9 10 10 11 12 11 8 9 12 11 11 11 11 10 10 10 10 9 9 8
-11 -10 -6 -4 -3 -1 6 8 12 12 12 14 13 12 13 11 10 8 8 10 10 11 10 11 10 10 10 10 9 9 9 9
-8 -9 -8 -4 -2 2 5 8 11 12 12 13 13 13 12 12 9 10 10 10 10 11 10 10 10 10 11 10 10 8 8 9
-1 -5 -6 -6 -3 3 6 8 11 11 12 12 13 12 12 11 11 10 9 9 10 11 10 11 11 10 10 10 10 8 8 8
1 -3 -4 -5 -4 2 7 8 10 12 12 12 12 12 12 11 10 10 9 9 10 10 11 11 10 10 10 10 9 7 8 8
3 0 -2 -5 -4 5 9 9 10 12 12 12 12 12 11 10 11 10 10 11 10 10 10 10 10 9 10 10 9 8 8 9
4 3 -1 -3 -1 7 10 10 10 11 12 12 12 11 10 10 11 10 10 10 10 10 10 10 9 10 9 10 8 9 9 8
6 4 4 3 5 11 10 10 10 11 12 12 11 11 10 11 11 9 9 10 10 10 10 10 9 9 10 9 9 9 9 9
8 6 5 7 10 10 8 10 10 11 11 11 11 11 11 11 9 9 10 10 10 10 10 10 9 10 9 8 9 9 9 9
8 8 5 8 11 9 10 11 10 11 11 11 10 10 10 9 9 9 10 10 10 9 9 10 9 10 9 8 9 10 9 9
7 9 8 9 10 10 9 11 11 10 11 10 10 10 10 9 9 9 9 9 9 9 9 8 9 9 9 9 10 9 9 6
6 8 10 10 10 9 10 11 10 10 10 9 10 10 9 9 9 9 9 9 9 9 9 9 9 9 9 7 5 3 2 6
5 6 8 9 9 9 9 10 10 10 9 9 9 10 9 9 9 9 9 9 9 9 9 8 9 8 6 7 6 7 8 8
3 3 5 8 9 9 9 9 9 9 9 9 9 10 9 9 9 9 9 9 9 9 8 8 8 8 8 8 7 8 8 8
1 1 2 5 8 8 9 9 9 9 9 9 9 9 9 9 9 9 9 9 9 9 9 9 9 9 9 9 9 9 9 9
-1 0 1 2 5 7 8 9 9 10 9 9 9 9 8 8 8 8 8 9 9 9 9 9 9 9 9 9 9 9 9 9
-3 -1 -1 -0 2 5 6 8 9 9 9 8 8 9 8 8 8 8 8 8 8 8 9 9 9 9 9 9 9 9 9 9
-4 -2 -2 -1 -0 3 4 6 8 9 9 9 9 9 9 8 9 9 9 9 9 8 8 8 8 8 9 9 8 8 9 8

GFSFLT1_850_dewp_096.txt.gz
Dewpoint
-7 -7 -6 -6 -6 -8 -3 3 10 8 13 13 15 15 11 11 9 7 7 8 8 10 11 12 11 11 10 10 10 10 10 8
-10 -8 -7 -6 -6 -8 -5 3 8 6 10 13 14 15 14 13 11 9 10 9 9 10 12 11 11 11 11 10 10 10 10 9
-12 -12 -9 -7 -5 -6 -4 4 8 8 9 12 13 14 14 14 11 10 11 13 11 10 10 11 11 11 11 10 9 10 10 9
-10 -9 -10 -9 -7 -5 -3 4 9 9 10 13 13 13 13 13 13 11 12 13 12 9 10 11 11 11 10 9 10 10 9 9
0 -2 -3 -7 -5 -4 -2 1 6 10 11 13 12 13 12 12 12 13 11 10 10 10 10 11 11 10 10 10 10 10 9 9
2 2 1 -2 -6 -4 -1 1 5 10 10 12 12 13 12 12 12 12 12 11 10 10 11 10 10 10 10 10 10 10 9 9
4 3 2 -1 -4 -4 1 3 6 9 10 11 13 13 12 11 11 11 10 10 9 9 11 10 10 10 10 11 10 10 9 8
7 4 3 0 -2 -4 4 4 7 11 11 11 13 12 11 12 11 10 10 10 10 10 10 10 10 10 11 10 10 9 9 8
7 8 7 3 -1 5 6 8 9 11 12 12 12 11 11 11 10 10 10 10 10 10 10 10 9 10 10 10 10 10 10 8
7 8 9 6 9 10 10 10 10 11 11 11 11 11 11 11 9 10 10 9 10 10 10 10 10 10 9 10 10 10 9 8
7 7 9 10 9 9 9 8 10 10 10 11 11 11 11 10 10 10 9 9 9 10 10 10 10 10 9 10 9 10 9 9
5 7 9 11 10 10 8 11 11 11 10 11 11 10 10 10 10 9 9 9 9 9 9 9 10 10 10 10 9 9 8 9
4 7 8 9 10 10 8 11 11 11 10 10 10 10 9 9 10 9 9 9 9 9 9 9 9 10 10 9 10 9 9 9
2 5 6 7 9 9 9 10 11 11 10 10 9 9 9 9 9 9 9 9 9 9 8 8 8 9 9 9 9 8 8 9
0 1 3 5 7 8 9 9 10 10 10 10 9 9 9 9 9 9 8 9 9 9 9 8 8 9 9 9 9 8 8 5
-1 -1 -0 3 4 7 8 9 9 10 9 9 9 9 9 8 9 9 9 9 9 9 9 9 8 8 8 7 7 7 7 8
-3 -3 -2 -0 2 3 5 8 9 9 9 8 9 9 10 9 9 9 9 9 9 9 9 9 9 8 8 8 9 8 8 8
-4 -5 -4 -2 -0 1 2 4 7 8 9 9 9 9 9 9 9 9 9 9 9 9 9 9 9 9 9 9 9 8 9 8
-6 -5 -5 -4 -2 0 1 1 3 6 9 9 9 8 7 8 8 9 8 8 9 9 9 9 9 9 9 9 9 9 9 9

GFSFLT1_850_dewp_102.txt.gz
Dewpoint
-10 -9 -7 -8 -8 -7 -7 -8 -7 -7 -5 4 12 11 10 9 8 10 12 10 10 10 9 10 12 12 12 12 11 11 11 11
-12 -11 -7 -7 -7 -7 -7 -6 -6 -6 -3 1 11 11 12 11 10 10 13 13 11 11 11 11 12 12 11 11 11 10 11 11
-13 -13 -14 -13 -12 -9 -6 -6 -6 -5 -5 -4 8 8 11 11 12 12 13 14 13 13 12 13 12 11 11 11 11 11 11 10
-15 -14 -14 -14 -15 -14 -12 -8 -6 -6 -4 0 8 9 9 11 13 12 13 13 13 12 12 12 12 11 11 10 10 11 10 10
-13 -12 -12 -3 -1 -4 -11 -10 -6 -4 -2 1 6 7 8 6 11 12 12 12 12 12 12 12 12 11 10 10 9 10 11 10
6 6 6 4 3 3 -2 -5 -3 -4 -3 1 8 9 7 8 10 11 12 11 12 12 11 11 11 11 10 10 9 10 11 11
8 8 6 5 4 4 3 2 -0 1 -1 5 9 7 8 9 10 11 11 11 11 11 11 11 11 10 10 10 10 9 10 10
8 9 9 9 6 4 4 3 5 6 6 6 9 8 7 6 8 9 10 11 11 11 11 11 10 11 10 10 9 10 9 10
6 7 9 10 10 9 7 9 5 7 6 7 9 7 7 9 10 9 9 11 11 11 11 10 10 10 9 9 9 9 9 9
5 6 8 9 9 10 11 12 14 10 7 7 7 8 10 11 10 9 10 11 12 10 9 10 10 9 9 9 10 10 9 9
3 4 5 7 8 9 10 11 11 9 6 7 7 8 10 10 12 11 11 11 10 10 10 10 10 10 10 10 10 9 10 9
-1 2 4 6 7 9 9 10 10 10 9 8 8 9 10 12 13 11 10 10 10 10 10 10 9 10 9 10 10 10 10 10
-2 -1 2 4 6 7 9 10 10 10 10 8 8 9 11 11 11 10 10 10 10 10 9 9 9 9 10 10 9 10 10 10
-4 -2 -1 1 2 5 7 9 10 11 11 11 10 11 11 11 10 10 9 9 9 8 9 8 9 9 9 9 10 10 10 10
-5 -4 -3 -1 1 3 5 7 8 9 10 10 11 11 10 10 9 8 9 8 8 9 8 8 8 8 9 9 9 10 10 9
-5 -5 -4 -3 -1 1 3 5 7 7 9 10 10 10 9 9 8 8 8 8 8 8 8 8 8 8 8 9 9 10 9 9
-6 -5 -5 -4 -3 -1 0 2 4 5 8 9 10 9 9 9 8 8 9 8 9 9 8 8 8 8 8 8 9 9 9 9
-7 -6 -6 -5 -4 -3 -2 -0 2 4 5 8 9 9 9 9 9 8 9 9 9 9 8 9 8 8 8 8 8 8 9 9
-7 -6 -6 -5 -4 -3 -2 -1 0 1 3 4 6 7 8 9 9 9 8 9 9 9 9 8 8 8 8 8 8 8 8 8

GFSFLT1_850_dewp_105.txt.gz
Dewpoint
-10 -11 -11 -11 -10 -9 -8 -7 -7 1 10 7 8 8 9 11 7 7 6 4 4 8 10 10 11 11 11 12 12 11 11 10
-13 -13 -13 -12 -11 -10 -7 -7 -7 -7 6 4 7 8 5 8 11 9 9 9 7 8 10 11 12 12 12 12 11 11 10 11
-12 -13 -13 -15 -15 -14 -11 -7 -7 -6 -6 -6 -1 -0 1 2 10 11 10 11 11 10 10 12 13 13 13 12 11 10 10 11
-6 -11 -13 -13 -14 -14 -13 -11 -9 -6 -5 -2 0 7 7 10 11 10 10 10 12 12 12 13 12 12 12 11 11 10 10 10
4 1 -6 -7 -10 -11 -9 -12 -11 -6 -4 -4 -1 -2 1 4 8 6 9 9 12 13 13 12 12 12 12 11 11 10 10 9
5 7 8 6 4 2 0 -7 -10 -10 -6 -2 -3 2 0 -1 8 7 6 8 11 12 13 12 12 11 11 11 10 10 10 10
3 4 6 8 8 6 2 -1 -7 -9 -7 -3 1 -1 2 5 9 8 7 8 11 11 12 12 11 11 11 11 10 10 10 10
1 2 4 8 9 6 5 2 4 2 -1 -3 0 6 5 4 7 8 8 8 11 11 11 11 11 11 11 11 10 10 10 10
-0 1 2 5 9 10 8 10 13 13 11 11 7 6 7 8 9 9 7 7 10 12 11 11 11 11 11 11 10 11 11 10
-1 -1 1 5 7 9 10 11 12 13 13 14 12 9 7 8 8 8 8 10 10 10 10 11 11 11 11 10 9 10 10 9
-3 -2 1 3 6 8 9 10 11 12 13 14 13 8 7 7 6 8 10 10 10 11 11 11 10 10 10 9 9 9 9 9
-4 -4 0 2 4 6 8 9 10 11 12 13 11 8 7 7 8 9 10 11 10 10 10 10 10 9 9 9 9 9 9 9
-4 -3 -1 -1 2 5 6 8 9 10 11 8 9 8 8 8 8 10 11 11 10 10 10 10 9 9 9 9 9 10 10 10
-5 -5 -3 -2 0 2 4 6 8 9 10 9 8 8 8 8 10 10 10 9 9 10 10 9 10 9 9 9 9 9 9 10
-6 -5 -5 -3 -1 0 2 4 7 9 10 11 11 11 10 11 11 10 10 9 9 8 8 9 9 8 9 8 9 9 9 9
-7 -7 -6 -4 -3 -1 1 3 5 6 7 9 10 10 10 10 9 9 8 8 8 8 8 9 9 8 8 8 8 9 8 9
-7 -7 -6 -6 -4 -3 -1 1 2 3 4 5 8 9 10 10 9 9 8 8 7 8 8 8 8 8 8 8 8 8 9 9
-8 -7 -7 -6 -5 -4 -3 -1 1 1 2 4 5 8 9 9 9 9 9 8 7 8 9 8 8 8 8 8 8 8 8 9
-8 -8 -7 -6 -5 -4 -4 -3 -1 -0 1 2 3 3 5 6 7 8 8 8 9 8 8 8 8 8 9 8 8 8 8 8